FDX9311 KPDX-KDEN

Flight info

Callsign FDX9311
Flight time N/A
Altitude 35000
Route WHAMY5 IMB PIH MJANE FLATI5
Aircraft MD11/H-SDE1E2E3FGHIJ2J3J4J5M1RWXY/LB1D1

Departure

Time 2026-05-08 04:36
Airport Portland International Airport (KPDX)

Arrival

Time N/A
Airport Denver International Airport (KDEN)
Time Latitude Longitude Altitude Speed Heading
2026-05-08 04:01 45.57940 -122.61012 36 ft 0 kts 226°
2026-05-08 04:18 45.57941 -122.61009 36 ft 1 kts 226°
2026-05-08 04:19 45.57954 -122.60991 35 ft 3 kts 223°
2026-05-08 04:19 45.57969 -122.60972 33 ft 3 kts 225°
2026-05-08 04:19 45.57978 -122.60959 32 ft 3 kts 234°
2026-05-08 04:19 45.57988 -122.60939 32 ft 3 kts 284°
2026-05-08 04:20 45.57990 -122.60937 31 ft 2 kts 312°
2026-05-08 04:20 45.57991 -122.60938 31 ft 2 kts 314°
2026-05-08 04:20 45.58003 -122.60957 34 ft 3 kts 313°
2026-05-08 04:20 45.58017 -122.60978 33 ft 3 kts 313°
2026-05-08 04:21 45.58031 -122.60999 34 ft 3 kts 314°
2026-05-08 04:21 45.58046 -122.61020 34 ft 3 kts 314°
2026-05-08 04:21 45.58060 -122.61040 35 ft 3 kts 314°
2026-05-08 04:21 45.58074 -122.61061 34 ft 3 kts 315°
2026-05-08 04:22 45.58088 -122.61081 35 ft 3 kts 315°
2026-05-08 04:22 45.58103 -122.61101 35 ft 3 kts 315°
2026-05-08 04:22 45.58117 -122.61121 35 ft 3 kts 316°
2026-05-08 04:22 45.58124 -122.61131 35 ft 0 kts 316°
2026-05-08 04:24 45.58126 -122.61133 36 ft 1 kts 316°
2026-05-08 04:25 45.58141 -122.61154 33 ft 4 kts 315°
2026-05-08 04:25 45.58158 -122.61178 36 ft 3 kts 315°
2026-05-08 04:25 45.58169 -122.61194 35 ft 1 kts 313°
2026-05-08 04:25 45.58171 -122.61197 35 ft 0 kts 313°
2026-05-08 04:26 45.58173 -122.61201 35 ft 1 kts 312°
2026-05-08 04:26 45.58174 -122.61203 35 ft 0 kts 312°
2026-05-08 04:26 45.58185 -122.61220 35 ft 5 kts 314°
2026-05-08 04:26 45.58229 -122.61286 35 ft 14 kts 313°
2026-05-08 04:27 45.58284 -122.61340 39 ft 5 kts 347°
2026-05-08 04:27 45.58299 -122.61344 39 ft 1 kts 352°
2026-05-08 04:27 45.58314 -122.61340 40 ft 4 kts 13°
2026-05-08 04:27 45.58357 -122.61292 39 ft 13 kts 40°
2026-05-08 04:28 45.58441 -122.61178 40 ft 17 kts 44°
2026-05-08 04:28 45.58519 -122.61068 39 ft 15 kts 45°
2026-05-08 04:28 45.58593 -122.60962 37 ft 15 kts 45°
2026-05-08 04:28 45.58660 -122.60867 35 ft 12 kts 43°
2026-05-08 04:29 45.58718 -122.60789 36 ft 11 kts 43°
2026-05-08 04:29 45.58770 -122.60717 34 ft 9 kts 48°
2026-05-08 04:29 45.58791 -122.60654 37 ft 5 kts 80°
2026-05-08 04:29 45.58787 -122.60611 37 ft 5 kts 105°
2026-05-08 04:30 45.58767 -122.60544 36 ft 11 kts 117°
2026-05-08 04:30 45.58716 -122.60412 37 ft 19 kts 119°
2026-05-08 04:30 45.58644 -122.60233 40 ft 22 kts 119°
2026-05-08 04:30 45.58574 -122.60052 43 ft 19 kts 119°
2026-05-08 04:31 45.58514 -122.59897 40 ft 17 kts 119°
2026-05-08 04:31 45.58461 -122.59758 40 ft 15 kts 119°
2026-05-08 04:31 45.58415 -122.59639 41 ft 13 kts 118°
2026-05-08 04:31 45.58368 -122.59517 40 ft 14 kts 119°
2026-05-08 04:32 45.58316 -122.59382 41 ft 16 kts 119°
2026-05-08 04:32 45.58264 -122.59256 40 ft 14 kts 121°
2026-05-08 04:32 45.58224 -122.59154 41 ft 10 kts 119°
2026-05-08 04:32 45.58189 -122.59063 41 ft 12 kts 118°
2026-05-08 04:33 45.58141 -122.58942 43 ft 16 kts 120°
2026-05-08 04:33 45.58087 -122.58808 44 ft 14 kts 120°
2026-05-08 04:33 45.58043 -122.58694 43 ft 13 kts 118°
2026-05-08 04:33 45.58005 -122.58596 40 ft 9 kts 119°
2026-05-08 04:34 45.57986 -122.58528 39 ft 6 kts 98°
2026-05-08 04:34 45.57994 -122.58495 41 ft 3 kts 58°
2026-05-08 04:34 45.58016 -122.58458 41 ft 7 kts 44°
2026-05-08 04:34 45.58065 -122.58451 40 ft 8 kts 330°
2026-05-08 04:35 45.58085 -122.58486 40 ft 0 kts 302°
2026-05-08 04:35 45.58154 -122.58658 44 ft 55 kts 299°
2026-05-08 04:36 45.58472 -122.59472 41 ft 131 kts 299°
2026-05-08 04:36 45.59022 -122.60863 58 ft 184 kts 300°
2026-05-08 04:36 45.59652 -122.62470 831 ft 177 kts 301°
2026-05-08 04:36 45.60270 -122.63963 1864 ft 177 kts 301°
2026-05-08 04:37 45.60917 -122.65485 2622 ft 183 kts 301°
2026-05-08 04:37 45.61583 -122.67065 3388 ft 193 kts 300°
2026-05-08 04:37 45.62337 -122.68876 3568 ft 229 kts 300°
2026-05-08 04:37 45.63203 -122.70972 3772 ft 257 kts 300°
2026-05-08 04:38 45.64114 -122.73191 4690 ft 257 kts 299°
2026-05-08 04:38 45.65019 -122.75403 5692 ft 260 kts 299°
2026-05-08 04:38 45.65930 -122.77638 6107 ft 262 kts 298°
2026-05-08 04:38 45.66724 -122.79979 6483 ft 262 kts 287°
2026-05-08 04:39 45.66977 -122.82533 6812 ft 262 kts 265°
2026-05-08 04:39 45.66613 -122.85086 7659 ft 263 kts 255°
2026-05-08 04:39 45.66067 -122.87598 8481 ft 267 kts 249°
2026-05-08 04:39 45.65132 -122.89952 9091 ft 279 kts 230°
2026-05-08 04:40 45.63588 -122.91658 9907 ft 288 kts 207°
2026-05-08 04:40 45.61606 -122.92367 10237 ft 315 kts 184°
2026-05-08 04:40 45.59323 -122.91920 10387 ft 346 kts 168°
2026-05-08 04:40 45.56923 -122.90913 10646 ft 368 kts 165°
2026-05-08 04:41 45.54508 -122.89732 11377 ft 373 kts 161°
2026-05-08 04:41 45.52138 -122.88117 12126 ft 381 kts 150°
2026-05-08 04:41 45.50076 -122.85691 12858 ft 389 kts 133°
2026-05-08 04:41 45.48623 -122.82417 13556 ft 396 kts 113°
2026-05-08 04:42 45.47813 -122.78655 14167 ft 402 kts 103°
2026-05-08 04:42 45.47294 -122.74755 14746 ft 407 kts 99°
2026-05-08 04:42 45.46841 -122.70750 15360 ft 411 kts 99°
2026-05-08 04:42 45.46372 -122.66712 15953 ft 415 kts 100°
2026-05-08 04:43 45.45731 -122.62677 16517 ft 418 kts 108°
2026-05-08 04:43 45.44746 -122.58755 17089 ft 422 kts 113°
2026-05-08 04:43 45.43595 -122.54934 17646 ft 425 kts 115°
2026-05-08 04:43 45.42360 -122.51074 18209 ft 429 kts 116°
2026-05-08 04:44 45.41106 -122.47190 18704 ft 433 kts 116°
2026-05-08 04:44 45.39846 -122.43263 19184 ft 436 kts 115°
2026-05-08 04:44 45.38602 -122.39345 19642 ft 439 kts 115°
2026-05-08 04:44 45.37346 -122.35358 20080 ft 442 kts 115°
2026-05-08 04:45 45.36083 -122.31332 20548 ft 446 kts 115°
2026-05-08 04:45 45.34817 -122.27291 21013 ft 449 kts 115°
2026-05-08 04:45 45.33541 -122.23221 21478 ft 452 kts 115°
2026-05-08 04:45 45.32272 -122.19178 21939 ft 455 kts 115°
2026-05-08 04:46 45.30971 -122.15043 22422 ft 458 kts 115°
2026-05-08 04:46 45.29663 -122.10892 22905 ft 462 kts 115°
2026-05-08 04:46 45.28343 -122.06709 23327 ft 465 kts 115°
2026-05-08 04:46 45.27008 -122.02486 23831 ft 468 kts 116°
2026-05-08 04:47 45.25683 -121.98304 24224 ft 471 kts 115°
2026-05-08 04:47 45.24351 -121.94027 24622 ft 474 kts 114°
2026-05-08 04:47 45.23122 -121.89661 25051 ft 477 kts 112°
2026-05-08 04:47 45.21963 -121.85227 25466 ft 481 kts 110°
2026-05-08 04:48 45.20835 -121.80752 25914 ft 484 kts 110°
2026-05-08 04:48 45.19707 -121.76236 26333 ft 487 kts 110°
2026-05-08 04:48 45.18568 -121.71691 26764 ft 490 kts 110°
2026-05-08 04:48 45.17424 -121.67164 27167 ft 493 kts 110°
2026-05-08 04:49 45.16254 -121.62565 27562 ft 496 kts 110°
2026-05-08 04:49 45.15070 -121.57939 27894 ft 501 kts 110°
2026-05-08 04:49 45.13871 -121.53269 28285 ft 504 kts 110°
2026-05-08 04:49 45.12679 -121.48639 28680 ft 507 kts 110°
2026-05-08 04:50 45.11471 -121.43956 29241 ft 506 kts 110°
2026-05-08 04:50 45.10256 -121.39253 29642 ft 509 kts 110°
2026-05-08 04:50 45.09033 -121.34533 30020 ft 512 kts 110°
2026-05-08 04:50 45.07805 -121.29800 30349 ft 513 kts 110°
2026-05-08 04:51 45.06573 -121.25059 30770 ft 512 kts 110°
2026-05-08 04:51 45.05342 -121.20333 31208 ft 510 kts 110°
2026-05-08 04:51 45.04115 -121.15635 31685 ft 508 kts 110°
2026-05-08 04:51 45.02904 -121.11006 32039 ft 507 kts 110°
2026-05-08 04:52 45.01678 -121.06326 32406 ft 506 kts 110°
2026-05-08 04:52 45.00450 -121.01651 32777 ft 505 kts 110°
2026-05-08 04:52 44.99236 -120.97034 33136 ft 505 kts 110°
2026-05-08 04:52 44.98010 -120.92383 33482 ft 504 kts 110°
2026-05-08 04:53 44.96785 -120.87746 33843 ft 503 kts 110°
2026-05-08 04:53 44.95551 -120.83105 34144 ft 503 kts 110°
2026-05-08 04:53 44.94303 -120.78474 34321 ft 505 kts 110°
2026-05-08 04:53 44.93066 -120.73897 34579 ft 505 kts 110°
2026-05-08 04:54 44.91818 -120.69264 34822 ft 505 kts 110°
2026-05-08 04:54 44.90574 -120.64629 34899 ft 505 kts 110°
2026-05-08 04:54 44.88087 -120.55349 34925 ft 505 kts 110°
2026-05-08 04:55 44.85596 -120.46064 34931 ft 506 kts 110°
2026-05-08 04:55 44.83102 -120.36813 34930 ft 506 kts 110°
2026-05-08 04:56 44.80607 -120.27595 34931 ft 506 kts 110°
2026-05-08 04:56 44.78090 -120.18331 34946 ft 506 kts 110°
2026-05-08 04:57 44.75619 -120.09256 35887 ft 416 kts 110°
2026-05-08 04:57 44.74858 -120.06386 40223 ft 237 kts 107°
2026-05-08 04:57 44.74314 -120.04472 40886 ft 204 kts 97°
2026-05-08 04:58 44.73993 -120.02438 35492 ft 283 kts 100°